THORAD DELTA 1 DEB, 9987

Orbit data source: Space-Track

THORAD DELTA 1 DEB, 9987 is space debris in SSO originally from a launch on Fri, 15 Nov 1974 UTC launched from the Air Force Western Test Range (AFWTR). Debris objects in space refer to the collection of defunct objects orbiting the Earth. Examples of debris include non-operational satellites, rocket bodies, and fragments generated from explosions, collisions, or faulty payload assembly.

Loading next visibility...
Identifier
9987, 1974-089EE
Orbit
SSO
Country
Flag of USUS
Related business
Manufacturer
Unknown
Mission
Spacecraft
Bus & Motor
Unknown
Mass
Unknown
Launch date (UTC)
1974-11-15 (51 years ago)
Launch vehicle
Unknown
Launch site
Air Force Western Test Range (AFWTR)
Object type
Payload
Rocket body
Debris
Shape & HBR
Unknown shape, 0.1 m
Radar Cross Section
Small (<0.1 m²)

Expand to show TLE details & history
Last TLE update: 23 hours ago

TLE from 23 hours ago
0 THORAD DELTA 1 DEB
1 09987U 74089EE  25351.85326458  .00000592  00000-0  39962-2 0  9995
2 09987 101.4655 128.1815 0095179 100.8835  53.9487 12.51967027326657
Epoch: 2025-12-17T20:28Z
TLE epoch observation values (Epoch: 2025-12-17T20:28:42.059Z)
Latitude
23.78841°
Longitude
-80.60681°
Altitude
1,415.445 km
Speed
7.175 km/s
True Right ascension
20h 53m 08s
True Declination
23° 40' 21"
Sunlit
Object was in daylight at epoch
Visualization orbit readout
Latitude
Unknown
Longitude
Unknown
Altitude
Unknown
Speed
Unknown
Apparent Right ascension
Unknown
Apparent Declination
Unknown
Sunlit
N/A
Visualization observer readout
Local Sidereal Time
18:39:11
Azimuth
Unknown
Elevation
Unknown
Doppler factor
Unknown
Orbital elements
Apogee altitude
1,528.349 km
Perigee altitude
1,379.262 km
Semi-major axis
7,831.943 km
Eccentricity
0.00952
Inclination
101.4655°
RAAN
128.1815°
Arg. of periapsis
100.8835°
True anomaly
54.83668°
Mean anomaly
53.9487°
Eccentric anomaly
54.39207°
Mean motion
3.1314 °/min
Orbital period
114.96 mins
BSTAR
0.0039962
Loading maneuver chart data...
Computing Atmospheric mass density...
Loading historical data...
Loading historical data...
Loading historical data...
Loading historical data...
Loading historical data...
Loading historical data...
Loading historical data...

Documentation

Showing up to 5 results
|